Theta_e
347 343 340 339 341 343 341 339 343 343 340 337 337 340 342 341 342 342 341 339 333 333 333 345 343 340 344 344 343 341 339 338 333 332 333 335 336 333 341 343 343 342 332
349 347 338 342 342 342 341 342 345 342 344 344 345 344 344 342 343 342 343 342 343 344 343 342 337 340 341 343 342 343 341 338 341 343 340 336 332 336 342 344 341 332 333
348 347 341 342 343 343 339 342 341 342 345 344 343 342 340 341 340 339 339 341 338 337 339 341 339 342 338 332 331 337 337 334 342 344 345 343 344 338 338 337 338 334 334
349 349 348 342 344 341 335 344 343 344 343 341 342 344 336 344 344 344 335 339 343 343 342 342 341 339 338 336 335 333 331 337 345 347 345 343 344 337 334 332 333 335 336
350 350 343 343 343 338 343 343 342 342 342 335 329 324 318 324 337 336 334 339 343 340 337 336 335 334 332 331 331 332 339 344 345 344 348 345 343 334 336 340 337 341 342
351 352 344 342 341 339 343 343 342 340 326 323 333 347 328 318 326 334 335 339 336 336 333 333 331 327 327 327 326 326 339 345 346 346 345 344 343 334 332 333 334 333 335
350 349 342 340 339 340 343 342 337 326 328 332 344 345 344 319 322 330 335 335 335 333 333 331 330 327 324 324 325 326 340 342 344 346 347 344 330 340 328 326 337 338 334
350 349 346 341 336 344 343 339 327 332 338 339 341 325 322 321 325 330 334 334 334 333 332 331 330 329 328 327 327 330 337 340 340 343 342 332 326 326 325 325 325 327 328
350 348 348 346 339 343 340 337 330 336 335 333 332 331 330 330 332 333 333 334 334 334 335 334 333 331 330 330 330 333 339 340 341 341 342 332 329 329 329 328 328 328 328
350 350 348 346 341 342 345 330 333 336 336 336 341 340 338 338 338 342 337 336 337 337 338 339 339 337 333 331 331 333 337 339 339 340 339 331 331 331 331 331 331 331 331
350 349 348 351 337 350 350 331 335 337 342 346 348 348 350 350 349 346 341 340 341 341 342 342 344 345 345 338 343 342 338 337 336 337 334 333 333 333 333 333 333 334 334
349 350 348 344 346 350 349 348 346 346 352 352 349 352 347 346 348 345 345 345 348 344 345 347 351 350 351 350 349 348 347 343 339 338 336 335 335 335 336 335 335 336 336
347 350 349 345 348 348 346 343 345 346 349 351 352 350 351 349 352 348 348 351 350 351 354 352 352 353 349 350 348 347 349 346 343 342 344 344 342 341 341 341 340 341 341
347 348 350 346 350 349 346 344 344 345 347 349 352 353 352 348 348 348 349 349 348 349 350 350 351 352 351 352 351 351 349 346 345 345 343 344 345 345 345 345 346 346 346
347 348 350 348 349 350 349 347 344 346 348 350 350 351 350 349 352 350 350 348 349 348 349 351 352 352 353 351 351 350 349 348 350 348 347 343 344 345 346 346 346 347 347
348 348 353 346 350 349 351 350 347 346 348 350 348 352 350 353 349 350 349 347 348 350 351 352 354 351 350 349 351 352 351 350 350 350 350 349 345 345 345 346 346 347 347
349 349 345 344 349 349 349 348 350 344 344 345 348 349 352 352 353 348 349 348 349 350 350 351 352 351 349 350 350 350 350 350 350 351 351 350 351 349 348 346 346 346 346
350 351 348 347 347 348 350 352 349 349 346 343 344 346 351 351 352 348 347 347 352 349 348 349 350 351 352 351 349 348 348 348 349 350 351 350 350 350 351 351 350 348 346
350 351 347 348 346 347 351 351 350 350 350 347 344 344 349 349 347 348 346 348 350 348 346 348 351 352 352 351 349 347 348 347 347 346 350 352 353 353 352 353 354 351 347
350 350 350 348 346 348 350 350 350 351 350 350 349 345 346 349 351 351 345 347 349 345 346 354 351 352 352 350 350 349 347 346 347 347 348 349 351 350 352 352 354 355 352
349 350 351 349 349 349 350 350 350 349 349 350 352 351 350 348 351 353 349 348 348 346 349 350 352 351 349 349 351 349 348 344 344 344 346 346 349 349 353 353 356 352 353
348 349 350 349 349 348 350 350 350 350 350 351 351 352 354 353 353 351 352 350 350 349 349 349 350 350 347 347 350 350 348 345 342 346 345 348 350 351 348 350 352 354 353
350 350 349 348 349 347 347 349 351 353 348 349 349 349 351 353 353 353 353 354 354 351 348 349 349 349 347 349 348 348 348 347 348 346 343 343 349 350 351 350 348 351 350
348 351 351 352 351 351 348 348 352 351 349 349 350 349 349 351 349 350 351 354 356 354 352 351 350 351 350 346 344 344 344 347 348 348 345 344 345 345 350 346 349 348 350
349 350 352 354 354 352 355 349 352 351 352 353 351 350 352 348 351 352 351 350 353 352 352 354 353 352 352 350 347 345 345 345 345 345 344 343 343 344 343 345 344 347 346
349 349 350 354 357 357 355 354 350 346 345 346 351 350 351 350 349 352 352 352 354 352 352 351 352 352 351 351 352 352 348 346 345 343 342 341 341 341 340 340 342 344 345
Wind_Speed
10 11 15 16 14 13 14 15 17 16 16 15 15 15 15 15 16 16 16 17 16 15 16 16 17 17 16 15 16 17 17 17 16 16 14 14 14 15 16 16 13 9 12
14 12 17 15 14 16 16 16 16 16 16 15 15 15 14 14 14 15 16 15 15 16 16 15 17 16 16 14 15 15 15 17 19 19 18 12 14 12 11 15 14 10 10
15 14 16 15 16 16 14 15 15 14 13 13 12 12 12 12 12 12 13 14 14 15 16 16 16 15 16 15 12 13 14 21 22 19 18 11 9 11 11 9 8 9 9
18 15 13 16 16 15 15 14 14 13 11 12 11 12 10 11 13 13 13 15 15 16 15 15 14 14 13 12 12 15 15 19 18 12 12 8 7 10 9 9 8 8 8
15 14 17 16 15 16 14 12 11 10 10 11 11 11 10 10 10 11 14 15 14 15 16 15 14 12 11 11 12 14 19 21 19 16 11 11 7 9 9 10 9 8 10
18 13 17 16 15 14 13 11 11 11 11 12 14 10 12 11 12 13 15 16 17 17 17 16 14 13 13 13 15 15 19 20 15 8 13 10 8 9 8 8 7 5 5
18 13 16 16 14 14 12 12 11 12 13 13 12 13 12 12 15 16 17 18 18 18 18 16 16 16 16 17 16 17 18 19 11 12 11 7 8 9 7 8 8 6 6
18 14 15 14 15 14 12 12 11 13 13 13 12 14 15 18 19 19 19 18 18 18 18 18 19 19 19 19 18 17 19 19 11 11 9 6 11 10 10 9 8 7 7
16 15 14 13 13 13 12 12 12 14 16 18 21 23 24 24 22 20 19 18 18 17 18 19 21 21 20 19 19 21 22 19 10 10 8 8 11 11 11 10 9 8 7
15 15 13 10 15 12 9 11 13 16 19 23 25 24 24 22 20 19 16 16 17 17 17 18 20 22 20 18 18 18 20 17 8 9 6 9 10 10 10 9 9 8 7
14 14 15 9 15 13 7 11 14 18 19 17 20 18 15 11 12 14 12 15 17 18 18 19 21 19 18 20 21 19 17 10 8 9 6 9 9 9 9 8 8 7 6
15 15 18 12 16 9 10 9 8 8 9 9 12 10 11 12 11 11 16 18 19 18 19 18 17 16 10 8 12 14 12 9 8 7 9 9 9 9 9 8 7 7 6
16 15 14 15 9 9 7 9 8 8 9 8 10 10 11 8 8 9 8 9 9 13 8 11 11 10 7 7 7 6 7 6 6 5 9 10 9 10 10 9 8 8 9
18 15 14 16 12 8 7 8 9 8 7 10 6 8 6 8 8 8 8 7 8 8 8 8 7 6 5 5 6 6 3 5 4 4 6 7 7 7 7 7 7 7 8
19 17 14 13 12 9 9 8 9 8 6 4 5 7 5 6 6 5 5 6 6 6 6 6 6 6 4 4 5 5 6 5 4 3 4 7 5 5 5 5 6 7 8
19 18 15 16 12 10 7 9 9 8 5 5 5 4 5 6 3 3 2 3 4 3 4 4 5 5 5 4 5 5 5 5 4 4 3 7 7 6 5 5 6 7 8
18 18 19 16 12 10 9 9 7 6 6 6 5 4 1 3 3 6 1 1 1 3 5 4 7 3 3 4 4 4 5 6 4 6 5 6 7 9 9 10 9 9 10
18 18 17 16 13 11 9 9 7 6 5 6 6 4 4 2 3 2 2 2 4 4 4 3 4 3 4 5 4 6 6 7 8 7 5 7 7 10 13 12 14 13 10
17 17 18 16 14 11 10 7 6 6 5 4 5 5 5 4 4 4 3 6 9 5 5 5 4 5 6 7 8 7 7 8 8 9 8 10 11 3 9 14 15 14 7
16 19 18 16 14 12 9 9 6 5 4 4 5 5 6 3 4 6 5 8 8 6 6 5 7 8 8 9 10 10 11 10 8 8 7 10 8 11 6 9 10 11 10
15 17 18 17 15 13 10 8 6 7 6 7 7 9 8 7 6 7 4 7 7 6 8 12 8 9 8 8 10 11 10 12 9 10 9 8 10 8 5 7 3 8 11
13 15 17 17 15 14 10 9 8 6 6 8 12 7 8 9 8 8 9 7 8 7 8 8 8 9 10 9 11 11 13 11 12 8 10 11 8 8 12 10 11 9 7
14 14 16 17 16 15 13 8 7 6 6 6 8 7 10 7 8 10 11 11 12 10 8 9 9 10 10 10 11 11 13 13 13 14 15 13 11 12 15 10 15 11 15
16 15 15 15 16 14 15 12 9 9 7 9 11 7 10 4 10 12 14 13 13 12 15 12 12 12 12 12 12 12 14 15 15 16 14 14 15 16 14 20 13 17 13
17 18 16 16 15 16 12 13 12 12 11 16 12 7 3 7 11 10 12 14 15 16 15 15 16 16 15 16 15 15 16 16 18 19 21 18 16 16 17 17 18 15 15
14 12 14 17 15 14 15 14 13 14 15 19 12 12 6 10 13 13 11 12 14 16 18 18 19 20 20 20 20 17 18 19 19 20 22 22 21 19 18 16 16 14 14
Wind_Direction
109 120 113 110 108 103 100 96 91 93 92 91 93 90 90 92 92 90 90 91 91 93 95 93 90 90 92 94 94 95 95 91 87 87 88 94 98 107 100 93 76 102 104
126 125 117 117 113 107 100 96 95 95 92 89 89 90 91 93 93 92 91 88 90 92 90 91 91 88 89 90 93 95 96 86 84 81 78 82 100 107 107 112 145 107 110
122 113 120 117 111 102 98 99 96 93 90 88 89 89 91 95 96 96 95 94 95 94 92 94 92 84 84 82 89 95 95 92 85 77 86 69 88 99 116 119 111 101 106
124 121 120 116 110 103 105 103 101 94 90 90 85 88 90 100 94 93 100 100 97 94 90 90 84 81 83 83 85 89 94 102 87 76 81 90 83 88 92 89 89 93 91
126 122 120 118 111 105 101 103 97 91 93 90 89 78 85 109 113 106 102 104 102 94 90 83 78 77 82 87 91 93 94 91 84 78 97 92 94 80 89 90 79 86 107
125 126 124 117 112 111 102 99 94 93 90 95 97 87 79 101 115 109 106 101 98 92 86 81 79 81 84 86 88 96 101 91 77 90 88 100 116 86 89 113 119 111 118
124 124 124 119 116 105 99 96 92 93 98 103 93 91 87 94 109 107 104 100 95 90 85 81 80 79 80 80 83 89 98 87 90 95 88 99 101 99 90 101 110 104 106
130 128 122 120 118 108 99 94 95 101 101 104 93 93 95 97 101 103 102 99 94 89 85 83 78 77 77 77 78 83 90 89 84 85 84 77 88 93 91 84 90 94 98
131 132 122 117 117 108 97 95 99 99 101 99 94 91 90 90 93 96 98 96 91 88 86 83 79 76 74 75 77 81 83 86 87 87 72 66 80 84 84 83 80 82 84
134 133 135 114 118 92 90 97 102 103 102 97 88 85 82 76 85 83 81 87 85 80 76 76 79 74 70 70 72 78 75 76 83 73 86 69 72 75 79 81 81 78 76
138 141 137 148 139 98 105 95 109 110 95 90 79 73 77 93 82 68 83 80 76 71 68 71 72 69 67 63 60 57 65 84 72 82 61 69 73 72 69 67 66 69 68
153 148 149 159 113 118 125 104 129 119 112 126 114 88 103 105 93 88 73 75 67 72 63 62 55 53 43 55 31 50 69 64 76 79 52 61 63 65 64 58 53 45 45
162 159 149 151 136 143 125 123 132 126 116 121 108 91 102 104 94 97 73 63 57 49 53 43 34 51 66 72 66 66 63 69 68 82 39 57 58 58 57 54 46 39 29
172 167 149 156 147 128 143 136 149 145 144 133 128 89 81 106 82 100 90 83 77 76 66 53 55 55 69 61 61 50 72 53 53 60 357 34 49 53 54 50 38 26 23
176 169 161 174 146 164 133 157 152 156 151 126 122 109 102 105 95 101 93 91 77 70 64 53 43 40 41 65 57 45 52 43 43 47 302 356 15 23 29 25 18 5 358
178 173 171 178 159 158 158 139 144 158 186 150 147 155 109 71 154 95 94 92 67 54 43 35 47 37 36 41 36 33 38 16 14 355 355 305 338 347 351 349 345 345 341
177 180 186 165 169 170 160 138 144 164 158 175 186 233 144 65 34 126 45 4 339 354 13 4 25 7 14 359 20 356 355 16 356 334 323 294 294 298 318 318 321 321 322
178 170 170 169 176 170 167 157 156 179 162 187 201 217 218 278 330 49 286 309 278 338 316 315 340 327 354 340 328 336 334 328 341 306 319 312 301 310 311 300 313 304 307
172 171 170 172 177 181 187 175 176 195 160 189 206 214 245 248 277 282 267 289 304 308 293 298 300 331 320 317 299 318 323 321 322 324 330 299 262 322 316 308 308 312 315
171 174 175 178 181 184 194 186 190 204 207 210 205 219 233 259 281 297 273 290 310 292 280 281 291 300 307 311 307 305 305 306 303 310 330 323 338 341 327 312 309 310 311
167 175 181 182 188 188 189 194 203 217 223 231 239 228 233 226 252 273 280 285 304 301 268 270 291 291 298 302 308 307 300 298 290 287 339 316 328 324 314 328 21 317 317
174 181 188 190 195 191 200 206 217 239 230 240 250 239 207 238 248 257 260 267 282 277 292 282 283 286 283 280 296 305 308 301 292 336 321 298 300 302 304 306 316 290 289
180 186 193 197 205 205 191 226 236 233 252 258 258 263 253 239 249 258 260 258 259 276 278 274 279 277 281 276 281 286 301 291 306 297 294 292 304 301 302 286 303 287 299
193 195 198 202 206 216 221 214 237 248 257 259 255 247 233 299 275 271 263 263 266 260 251 261 283 278 265 273 275 273 273 280 285 297 293 289 287 291 279 296 289 296 296
196 200 201 209 220 202 230 220 233 244 248 247 257 263 221 263 280 267 263 256 258 264 267 268 267 270 263 269 270 273 273 272 275 277 288 289 285 286 287 290 294 297 294
193 188 198 191 207 214 217 235 238 249 260 266 277 277 307 286 278 285 265 266 268 265 267 267 269 271 270 258 257 266 268 274 278 280 282 284 286 287 287 288 289 291 293